{"data":{"norad_id":45570,"epoch":"2026-05-25T02:22:57.779040Z","epoch_age_seconds":69632,"freshness":"FRESH","line1":"1 45570U 20025AR  26145.09927985  .00043266  00000+0  11897-2 0  9995","line2":"2 45570  53.1562  81.0519 0005413  63.5423 296.6136 15.36784927337227","mean_motion":15.36784927,"eccentricity":0.0005413,"inclination_deg":53.1562,"raan_deg":81.0519,"arg_perigee_deg":63.5423,"mean_anomaly_deg":296.6136,"bstar":0.0011897,"rev_number":33722,"period_min":93.702116327433,"perigee_km":451.9247885404,"apogee_km":459.32301809433,"semimajor_km":6833.7609033174,"source":"CELESTRAK","updated_at":"2026-05-25T13:38:16.423883Z"}}